[[{"header":{"parameterUnit":"m.s-1","parameterCategory":1,"la1":30.2991,"la2":30.254,"lo1":-89.0895,"lo2":-89.0444,"dy":0.0017,"dx":0.0017,"nx":28,"ny":28,"refTime":"2024-12-06T09:00:00:Z","depth":0,"parameterNumber":2,"parameterNumberName":"U-component_of_WINDS"},"data":[0,0,0,0,0,0,0,0,0,0,0,0,0,0,0,0,0,0,0,0,0,0,0,0,0,0,0,0,0,0,0,0,0,0,0,0,0,0,0,0,0,0,0,0,0,0,0,0,0,0,0,0,0,0,0,0,0,0,-3.979,-3.979,0,-3.9839,-3.984,-3.984,-3.97,-3.9696,-3.9692,-3.9688,-3.9739,-3.9745,-3.975,0,0,0,0,0,0,0,0,0,0,0,0,0,-3.9574,-3.9579,-3.979,-3.979,-3.9791,-3.9839,-3.984,-3.984,-3.9701,-3.9696,-3.9691,-3.9686,-3.9738,-3.9744,-3.975,0,0,0,0,0,0,0,0,0,0,0,0,0,-3.965,-3.958,-3.979,-3.9727,-3.9722,-3.9839,-3.984,-3.9841,-3.9702,-3.9696,-3.9689,-3.9683,-3.9735,-3.9743,-3.9751,-3.9931,0,0,-3.9776,-3.978,0,0,0,0,0,0,0,0,-3.9646,-3.9658,-3.9736,-3.9732,-3.9726,-3.9757,-3.9782,-3.9871,-3.9704,-3.971,-3.9688,-3.968,-3.9751,-3.9757,-3.978,-3.9933,-3.9936,-3.9777,-3.9782,-3.9785,-3.9787,0,0,0,0,0,0,0,-3.9641,-3.9655,-3.9809,-3.9737,-3.9731,-3.9696,-3.97,-3.9799,-3.9766,-3.9709,-3.9699,-3.9706,-3.9747,-3.9773,-3.9781,-3.9936,-3.9777,-3.9784,-3.9789,-3.9792,-4.0238,-4.0244,0,0,0,0,0,0,-3.9644,-3.9652,-3.9808,-3.9811,-3.9669,-3.9706,-3.971,-3.9754,-3.9764,-3.976,-3.9712,-3.97,-3.9762,-3.9771,-3.9782,-3.9993,-3.9785,-3.9793,-3.9797,-4.0231,-4.0239,-4.0247,0,0,0,0,0,0,-3.964,-3.9659,-3.9806,-3.9729,-3.9744,-3.9716,-3.9767,-3.9758,-3.9784,-3.9767,-3.976,-3.9745,-3.9758,-3.9771,-3.9895,-3.9992,-3.9796,-3.9804,-4.0223,-4.0233,-4.0243,-4.0416,0,0,0,0,0,0,-3.9634,-3.9658,-3.9727,-3.9731,-3.9749,-3.9918,-3.9773,-3.9764,-3.9798,-3.9783,-3.9796,-3.9792,-3.9753,-3.9883,-3.9903,-4.0,-3.981,-4.0214,-4.0227,-4.024,-4.0402,-4.0431,-4.0457,0,0,0,0,0,-3.9627,-3.9774,-3.9731,-3.975,-3.9834,-3.9924,-3.9935,-3.9887,-3.9807,-3.9875,-3.9864,-3.9792,-3.9978,-3.9897,-3.9918,-4.0019,-4.0207,-4.0224,-4.0239,-4.0389,-4.0425,-4.0456,0,0,0,0,0,0,-3.9783,-3.9773,-3.9726,-3.9879,-3.9903,-3.99,-3.9985,-3.9927,-3.9975,-3.9959,-3.9897,-3.9902,-4.0037,-4.004,-3.995,-4.0193,-4.0079,-4.01,-4.0186,-4.0221,-4.0248,-4.0245,-3.9817,0,0,0,0,0,-3.9835,-3.9909,-3.9896,-4.0032,-4.0047,-4.0015,-4.0052,-4.0013,-4.0036,-4.0046,-4.0043,-4.0069,-4.0133,-4.0177,-4.0235,-4.0401,-4.0401,-4.048,-4.0508,-4.053,-4.055,-4.0637,-4.0672,-4.0298,-4.0298,-4.0298,0,0,-3.9943,-3.9947,-3.9998,-4.0064,-4.0078,-4.0156,-4.0024,-4.0112,-4.017,-4.0059,-4.0176,-4.0176,-4.0199,-4.0345,-4.0409,-4.0352,-4.0652,-4.055,-4.0569,-4.0575,-4.0657,-4.0692,-4.0723,-4.0309,-4.0307,-4.0306,0,0,-4.0181,-4.0191,-4.0306,-4.0322,-4.0346,-4.0322,-4.035,-4.0356,-4.0351,-4.0467,-4.0386,-4.0452,-4.0564,-4.0585,-4.061,-4.0853,-4.0789,-4.0873,-4.1018,-4.1104,-4.1133,-4.1159,-4.1246,-4.1278,-4.0892,-4.0893,-4.0893,0,-4.0313,-4.0427,-4.0372,-4.0465,-4.0497,-4.0399,-4.0514,-4.0533,-4.0575,-4.0598,-4.0533,-4.0671,-4.068,-4.0829,-4.0888,-4.0911,-4.0941,-4.0873,-4.1133,-4.1159,-4.1182,-4.1264,-4.1297,-4.0903,-4.0902,-4.0901,-4.09,0,-4.0589,-4.0669,-4.0758,-4.08,-4.0841,-4.0945,-4.0905,-4.0953,-4.091,-4.0894,-4.1013,-4.102,-4.1078,-4.1109,-4.1069,-4.1253,-4.1216,-4.1143,-4.1028,-4.1229,-4.1305,-4.1336,-4.0917,-4.0914,-4.0911,-4.0908,0,0,-4.0928,-4.0936,-4.097,-4.0987,-4.1005,-4.1066,-4.1165,-4.122,-4.1263,-4.1294,-4.1375,-4.1471,-4.1403,-4.1432,-4.1392,-4.1467,-4.1659,-4.1384,-4.1384,-4.1436,-4.1862,-4.1918,-4.1955,-4.1616,-4.1622,-4.1626,-4.186,0,-4.1163,-4.1332,-4.1284,-4.1454,-4.1527,-4.1435,-4.1521,-4.1541,-4.1528,-4.1588,-4.1572,-4.1642,-4.1547,-4.1563,-4.1633,-4.1621,-4.1744,-4.1603,-4.1691,-4.1695,-4.1689,-4.1995,-4.2054,-4.2275,-4.189,-4.1895,-4.1898,0,-4.146,-4.1502,-4.1679,-4.1683,-4.1712,-4.179,-4.1837,-4.1895,-4.1915,-4.19,-4.1931,-4.1876,-4.1972,-4.1855,-4.1988,-4.1893,-4.1925,-4.1925,-4.1932,-4.1939,-4.181,-4.2012,-4.2344,-4.2378,-4.1945,-4.1941,-4.1938,0,-4.169,-4.1791,-4.1909,-4.1927,-4.1935,-4.1992,-4.1998,-4.2011,-4.2047,-4.2088,-4.211,-4.2162,-4.2191,-4.2231,-4.2191,-4.2109,-4.2329,-4.2209,-4.232,-4.2321,-4.2372,-4.2369,-4.2716,-4.2392,-4.2391,-4.239,-4.239,0,-4.1958,-4.207,-4.2013,-4.2087,-4.2209,-4.2152,-4.2275,-4.227,-4.2283,-4.2353,-4.2276,-4.2343,-4.2285,-4.2347,-4.2316,-4.243,-4.2444,-4.2434,-4.2425,-4.2442,-4.2443,-4.2463,-4.2447,-4.2399,-4.2397,-4.2396,-4.2394,0,-4.2237,-4.2203,-4.2326,-4.2323,-4.2324,-4.2415,-4.2412,-4.2479,-4.2459,-4.255,-4.2567,-4.2537,-4.2606,-4.2569,-4.2641,-4.2619,-4.2768,-4.2737,-4.2761,-4.2753,-4.2866,-4.2857,-4.3239,-4.3286,-4.2931,-4.2935,-4.2938,0,-4.241,-4.2494,-4.2499,-4.2541,-4.2552,-4.2619,-4.2655,-4.2602,-4.2643,-4.2671,-4.2735,-4.2797,-4.2845,-4.2959,-4.2944,-4.2998,-4.2968,-4.3098,-4.2976,-4.299,-4.2971,-4.2967,-4.2974,-4.3123,-4.3128,-4.3131,-4.3134,0,-4.2722,-4.2701,-4.2756,-4.2805,-4.285,-4.2886,-4.2916,-4.2954,-4.2901,-4.295,-4.302,-4.3057,-4.3129,-4.3192,-4.3238,-4.3243,-4.3181,-4.3172,-4.32,-4.3219,-4.323,-4.3226,-4.2829,-4.3164,-4.3161,-4.3159,-4.3157,-4.3156,-4.2954,-4.3024,-4.3038,-4.3101,-4.3118,-4.3147,-4.321,-4.3198,-4.3254,-4.3309,-4.3274,-4.3356,-4.3372,-4.3427,-4.3441,-4.3504,-4.3451,-4.3493,-4.3503,-4.3515,-4.353,-4.3219,-4.3512,-4.3511,-4.351,-4.3509,-4.3508,0,-4.3262,-4.3266,-4.3325,-4.3368,-4.3418,-4.3353,-4.3382,-4.3428,-4.3501,-4.3521,-4.3569,-4.3648,-4.3708,-4.3697,-4.3751,-4.3804,-4.3776,-4.382,-4.3816,-4.3818,-4.3574,-4.3544,-4.3841,-4.3841,-4.3841,-4.3841,-4.3841,-4.3841,-4.3428,-4.3543,-4.3523,-4.3645,-4.3648,-4.3727,-4.3749,-4.3776,-4.3791,-4.3884,-4.3933,-4.3924,-4.3932,-4.3986,-4.4038,-4.4032,-4.4056,-4.4111,-4.4096,-4.3868,-4.3835,-4.3804,-4.3775,-4.4116,-4.4117,-4.4334,-4.4336,-4.4338]},{"header":{"parameterUnit":"m.s-1","parameterCategory":1,"la1":30.2991,"la2":30.254,"lo1":-89.0895,"lo2":-89.0444,"dy":0.0017,"dx":0.0017,"nx":28,"ny":28,"refTime":"2024-12-06T09:00:00:Z","depth":0,"parameterNumber":3,"parameterNumberName":"V-component_of_WINDS"},"data":[0,0,0,0,0,0,0,0,0,0,0,0,0,0,0,0,0,0,0,0,0,0,0,0,0,0,0,0,0,0,0,0,0,0,0,0,0,0,0,0,0,0,0,0,0,0,0,0,0,0,0,0,0,0,0,0,0,0,-4.5188,-4.5189,0,-4.5254,-4.5255,-4.5256,-4.5201,-4.5199,-4.5196,-4.5194,-4.5258,-4.5262,-4.5266,0,0,0,0,0,0,0,0,0,0,0,0,0,-4.5008,-4.5011,-4.5188,-4.5189,-4.519,-4.5254,-4.5255,-4.5256,-4.5201,-4.5198,-4.5196,-4.5193,-4.5257,-4.5261,-4.5266,0,0,0,0,0,0,0,0,0,0,0,0,0,-4.5081,-4.5012,-4.5188,-4.517,-4.5169,-4.5254,-4.5255,-4.5256,-4.5202,-4.5198,-4.5195,-4.5192,-4.5255,-4.5261,-4.5266,-4.5371,0,0,-4.5284,-4.5287,0,0,0,0,0,0,0,0,-4.5077,-4.5088,-4.5172,-4.5171,-4.5171,-4.5216,-4.5215,-4.5295,-4.5203,-4.5189,-4.5194,-4.519,-4.5246,-4.5253,-4.5273,-4.5374,-4.5377,-4.5285,-4.5288,-4.5291,-4.5292,0,0,0,0,0,0,0,-4.5072,-4.5085,-4.5214,-4.5173,-4.5172,-4.5157,-4.5164,-4.523,-4.5236,-4.519,-4.5186,-4.5195,-4.5245,-4.5267,-4.5274,-4.5378,-4.5284,-4.529,-4.5293,-4.5295,-4.5565,-4.5569,0,0,0,0,0,0,-4.5069,-4.5081,-4.5212,-4.5216,-4.5114,-4.5163,-4.517,-4.5205,-4.5235,-4.5237,-4.5198,-4.5192,-4.5259,-4.5267,-4.5276,-4.5398,-4.5291,-4.5296,-4.5299,-4.5562,-4.5566,-4.557,0,0,0,0,0,0,-4.5066,-4.5082,-4.5209,-4.5147,-4.5162,-4.517,-4.5209,-4.5208,-4.523,-4.5241,-4.5242,-4.522,-4.5257,-4.5268,-4.5347,-4.54,-4.5299,-4.5304,-4.5557,-4.5563,-4.5568,-4.5646,0,0,0,0,0,0,-4.5061,-4.5081,-4.5122,-4.5149,-4.5166,-4.5282,-4.5212,-4.5212,-4.524,-4.5233,-4.5262,-4.5263,-4.5255,-4.5339,-4.5353,-4.5406,-4.5308,-4.5553,-4.556,-4.5566,-4.5639,-4.5653,-4.5666,0,0,0,0,0,-4.5055,-4.5141,-4.5124,-4.514,-4.5218,-4.5285,-4.5295,-4.5285,-4.5245,-4.5285,-4.5292,-4.5262,-4.5392,-4.5348,-4.5363,-4.5419,-4.5549,-4.5558,-4.5566,-4.5632,-4.5651,-4.5666,0,0,0,0,0,0,-4.5119,-4.5144,-4.5126,-4.5224,-4.5253,-4.5276,-4.5326,-4.5304,-4.5344,-4.5336,-4.532,-4.5327,-4.5411,-4.5423,-4.5373,-4.552,-4.5464,-4.5476,-4.5509,-4.5527,-4.554,-4.5535,-4.5313,0,0,0,0,0,-4.5145,-4.5199,-4.5217,-4.5301,-4.5317,-4.5319,-4.5348,-4.5338,-4.5367,-4.5378,-4.5391,-4.5419,-4.5466,-4.5497,-4.5541,-4.564,-4.5644,-4.5686,-4.5699,-4.571,-4.5721,-4.5772,-4.579,-4.5598,-4.5598,-4.5597,0,0,-4.5198,-4.5218,-4.5253,-4.5315,-4.5336,-4.539,-4.533,-4.539,-4.543,-4.5387,-4.5463,-4.5474,-4.5503,-4.5593,-4.5633,-4.5605,-4.5774,-4.5721,-4.573,-4.5734,-4.5782,-4.58,-4.5816,-4.5603,-4.5602,-4.5601,0,0,-4.5323,-4.5345,-4.5416,-4.5439,-4.5472,-4.5473,-4.549,-4.5516,-4.5522,-4.5598,-4.5566,-4.5612,-4.5694,-4.5716,-4.5737,-4.5869,-4.5841,-4.5883,-4.5955,-4.6005,-4.602,-4.6033,-4.6078,-4.6095,-4.5893,-4.5894,-4.5894,0,-4.5384,-4.5467,-4.5456,-4.5518,-4.5545,-4.551,-4.5581,-4.5603,-4.5648,-4.5666,-4.5635,-4.5736,-4.5753,-4.5846,-4.5878,-4.5898,-4.5915,-4.588,-4.6019,-4.6032,-4.6044,-4.6087,-4.6104,-4.5898,-4.5898,-4.5897,-4.5897,0,-4.554,-4.5597,-4.5651,-4.5696,-4.5729,-4.5796,-4.5793,-4.5827,-4.5814,-4.5817,-4.5894,-4.5914,-4.596,-4.5982,-4.5969,-4.6073,-4.6054,-4.6021,-4.5964,-4.6067,-4.6107,-4.6124,-4.5905,-4.5903,-4.5902,-4.5901,0,0,-4.5707,-4.5745,-4.5765,-4.5784,-4.5818,-4.5861,-4.5924,-4.5971,-4.5999,-4.6031,-4.6083,-4.6152,-4.6122,-4.6146,-4.6136,-4.618,-4.628,-4.6141,-4.6141,-4.6165,-4.6393,-4.6417,-4.6436,-4.6263,-4.6266,-4.6268,-4.639,0,-4.5832,-4.5945,-4.5936,-4.6042,-4.6093,-4.6059,-4.6114,-4.614,-4.6144,-4.6187,-4.6191,-4.624,-4.6197,-4.6211,-4.6253,-4.6259,-4.6325,-4.625,-4.6308,-4.6311,-4.6301,-4.6457,-4.6483,-4.6597,-4.6405,-4.6408,-4.641,0,-4.5993,-4.6031,-4.6142,-4.6166,-4.6187,-4.6237,-4.6278,-4.632,-4.6347,-4.6347,-4.6374,-4.6355,-4.6417,-4.636,-4.6444,-4.6393,-4.6416,-4.6422,-4.6426,-4.643,-4.6366,-4.6464,-4.6633,-4.665,-4.6435,-4.6433,-4.6431,0,-4.6102,-4.6181,-4.6257,-4.6275,-4.6305,-4.6341,-4.6355,-4.6378,-4.6406,-4.6441,-4.6459,-4.65,-4.6523,-4.6554,-4.6546,-4.6506,-4.6631,-4.6574,-4.6631,-4.6631,-4.6658,-4.6657,-4.6832,-4.6676,-4.6675,-4.6675,-4.6675,0,-4.6242,-4.631,-4.6306,-4.6353,-4.6428,-4.6416,-4.6491,-4.65,-4.6521,-4.6567,-4.6541,-4.6584,-4.6572,-4.6614,-4.6608,-4.6677,-4.6688,-4.6688,-4.6685,-4.669,-4.669,-4.6704,-4.6695,-4.668,-4.6679,-4.6678,-4.6677,0,-4.6376,-4.6376,-4.6457,-4.6478,-4.6485,-4.654,-4.6557,-4.66,-4.6602,-4.6661,-4.6674,-4.6677,-4.6725,-4.6721,-4.6775,-4.6771,-4.6856,-4.6845,-4.6847,-4.6844,-4.6902,-4.6896,-4.7092,-4.7116,-4.6945,-4.6947,-4.6948,0,-4.6464,-4.6516,-4.6544,-4.6573,-4.659,-4.6638,-4.6666,-4.6656,-4.6686,-4.672,-4.6758,-4.6805,-4.6841,-4.692,-4.6925,-4.6966,-4.6955,-4.702,-4.696,-4.6963,-4.6953,-4.695,-4.6954,-4.7032,-4.7034,-4.7035,-4.7037,0,-4.6621,-4.6618,-4.6661,-4.6703,-4.6738,-4.677,-4.68,-4.6825,-4.6818,-4.6852,-4.6902,-4.6931,-4.6986,-4.7031,-4.707,-4.7082,-4.7057,-4.7056,-4.7071,-4.7075,-4.7074,-4.7074,-4.6878,-4.7051,-4.7049,-4.7048,-4.7048,-4.7047,-4.6733,-4.6777,-4.6803,-4.6851,-4.6872,-4.69,-4.6941,-4.6949,-4.699,-4.7035,-4.7026,-4.7082,-4.7105,-4.7154,-4.717,-4.7212,-4.7188,-4.721,-4.7216,-4.7221,-4.7227,-4.7068,-4.7219,-4.7219,-4.7218,-4.7218,-4.7218,0,-4.6887,-4.6902,-4.6946,-4.6988,-4.7025,-4.7001,-4.7032,-4.7064,-4.7113,-4.7138,-4.7174,-4.723,-4.7274,-4.7283,-4.7324,-4.7355,-4.7345,-4.7366,-4.7363,-4.7366,-4.7247,-4.7229,-4.7374,-4.7374,-4.7374,-4.7374,-4.7374,-4.7374,-4.6971,-4.7044,-4.7044,-4.7126,-4.714,-4.7195,-4.7214,-4.7239,-4.7258,-4.7322,-4.7359,-4.7365,-4.7383,-4.7425,-4.7463,-4.7464,-4.7479,-4.7505,-4.7502,-4.739,-4.7375,-4.736,-4.7343,-4.7509,-4.7509,-4.7617,-4.7618,-4.7619]}]]